Погода в Знаменке

Россия / Тамбовская область     52°24′40″N   41°26′42″E
темп.,
°C
ветер,
м/с
пор.,
м/с
влажн.,
%
обл.,
%
осадки,
мм/ч
давл.,
гПа
погр.,
м
18 апреля, вс
вс1800:00+7юз118578 0.0 102010
03:00+5ю22900 0.0 101922
06:00+5ю23905 0.0 101968
09:00+9ююз33675 0.0 1019604
12:00+13ю354825 0.0 10181667
15:00+14юз334393 0.0 10181952
18:00+12зюз1357100 0.0 1018168
21:00+10в2261100 0.0 101831
19 апреля, пн
пн1900:00+9всв2265100 0.0 101832
03:00+8всв3690100 0.1 1017142
06:00+7юв1393100 1.3 1017171
09:00+9в348191 2.4 1017646
12:00+11всв447244 1.9 1017889
15:00+12в346261 3.6 1016983
18:00+11вюв5775100 4.4 1016423
21:00+7в712875 5.5 1018457
20 апреля, вт
вт2000:00+7в612906 0.1 1018405
03:00+7вюв5119454 0.3 1018386
06:00+6в7119198 0.1 1018498
09:00+7вюв71285100 0.1 1019633
12:00+8вюв81380100 0.0 1017808
15:00+9вюв101676100 0.0 10141051
18:00+7вюв122186100 3.4 1011931
21:00+7вюв142587100 7.9 10081157
21 апреля, ср
ср2100:00+8юв132285100 1.6 10071034
03:00+9юв122188100 2.1 1005816
06:00+10ю61484100 1.2 10061069
09:00+9ююв91485100 1.6 10071232
12:00+9ю71189100 0.6 1009906
15:00+9юз597483 0.9 10121118
18:00+9зюз6107192 0.3 1015863
21:00+7юз4981100 0.3 1018400
22 апреля, чт
чт2200:00+6юз4885100 0.0 1020283
03:00+4ююз3590100 0.0 1021113
06:00+5ююз2481100 0.0 1022132
09:00+7ююз2472100 0.0 1024246
12:00+11юз3350100 0.0 10241757
15:00+11ююз3350100 0.0 10241267
18:00+11ю235885 0.0 1024181
21:00+8ю226885 0.0 102514